Plum, TX

8:21 PM CST on December 03, 2016 (GMT -0600)
La Grange

Weather History for K3T5 - August, 2013

Change the Weather History Date:

Monday, August 5, 2013

  Actual Average (KAUS) Record (KAUS)
Temperature  
Mean Temperature 90 °F 84 °F  
Max Temperature 103 °F 97 °F 105 °F (1951)
Min Temperature 77 °F 72 °F 64 °F (1973)
Degree Days  
Heating Degree Days 0 0  
Month to date heating degree days 0  
Since 1 June heating degree days 0  
Since 1 July heating degree days 0  
Cooling Degree Days 25 19  
Month to date cooling degree days 95  
Year to date cooling degree days 1655  
Since 1 June cooling degree days 1148  
Growing Degree Days 40 (Base 50)    
Moisture  
Dew Point 74 °F    
Average Humidity 66    
Maximum Humidity 94    
Minimum Humidity 31    
Precipitation  
Precipitation 0.00 in 0.05 in 0.85 in (1949)
Month to date precipitation 0.29  
Year to date precipitation 20.97  
Snow  
Snow 0.00 in - - ()
Month to date snowfall  
Since 1 June snowfall  
Since 1 July snowfall  
Snow Depth -    
Sea Level Pressure  
Sea Level Pressure 29.97 in    
Wind  
Wind Speed 6 mph (South)    
Max Wind Speed 15 mph    
Max Gust Speed 29 mph    
Visibility 10 miles    
Events      
T = Trace of Precipitation, MM = Missing Value Source: NWS Daily Summary

Daily Weather History Graph

Daily Weather History Graph

Search for Another Location

Airport or City:

Trip Planner

Search our weather history database for the weather conditions in past years. The results will help you decide how hot, cold, wet, or windy it might be!

Date:

Astronomy

Aug. 05, 2013 Rise Set
Actual Time 6:49 AM CDT 8:17 PM CDT
Civil Twilight 6:23 AM CDT 8:43 PM CDT
Nautical Twilight 5:53 AM CDT 9:13 PM CDT
Astronomical Twilight 5:21 AM CDT 9:45 PM CDT
Moon 5:44 AM CDT (8/5) 7:21 PM CDT (8/5)
Length of Visible Light 14h 19m
Length of Day
13h 27m
Waning Crescent, 1% of the Moon is Illuminated
Aug 5
Waning Crescent
Aug 6
New
Aug 14
First Quarter
Aug 20
Full
Aug 28
Last Quarter

Hourly Weather History & Observations

Time (CDT) Temp. Heat Index Dew Point Humidity Pressure Visibility Wind Dir Wind Speed Gust Speed Precip Events Conditions
12:15 AM 83.5 °F 94.0 °F 78.1 °F 84% 30.02 in 10.0 mi South 5.8 mph - N/A   Clear
12:35 AM 83.3 °F 93.5 °F 77.9 °F 84% 30.02 in 10.0 mi South 6.9 mph - N/A   Clear
12:55 AM 82.6 °F 91.7 °F 77.5 °F 85% 30.02 in 10.0 mi South 5.8 mph - N/A   Clear
1:15 AM 81.9 °F 90.0 °F 77.2 °F 86% 30.02 in 10.0 mi South 5.8 mph - N/A   Clear
1:35 AM 81.5 °F 89.0 °F 77.0 °F 86% 30.02 in 10.0 mi South 3.5 mph - N/A   Clear
1:55 AM 80.4 °F 86.5 °F 76.5 °F 88% 30.01 in 10.0 mi South 3.5 mph - N/A   Clear
2:15 AM 80.1 °F 85.7 °F 76.5 °F 89% 30.01 in 10.0 mi Calm Calm - N/A   Clear
2:35 AM 79.3 °F - 76.1 °F 90% 30.01 in 10.0 mi South 3.5 mph - N/A   Clear
2:55 AM 79.0 °F - 76.1 °F 91% 30.01 in 10.0 mi South 4.6 mph - N/A   Clear
3:15 AM 78.8 °F - 76.1 °F 91% 30.01 in 10.0 mi South 3.5 mph - N/A   Clear
3:35 AM 78.8 °F - 76.1 °F 91% 30.01 in 10.0 mi South 3.5 mph - N/A   Clear
3:55 AM 78.1 °F - 75.6 °F 92% 30.01 in 10.0 mi Calm Calm - N/A   Clear
4:15 AM 77.7 °F - 75.4 °F 92% 30.01 in 10.0 mi Calm Calm - N/A   Clear
4:35 AM 77.9 °F - 75.4 °F 92% 30.01 in 10.0 mi Calm Calm - N/A   Scattered Clouds
4:55 AM 77.2 °F - 75.0 °F 93% 30.01 in 10.0 mi Calm Calm - N/A   Scattered Clouds
5:15 AM 77.5 °F - 75.4 °F 93% 30.01 in 10.0 mi Calm Calm - N/A   Clear
5:35 AM 77.5 °F - 75.4 °F 93% 30.01 in 10.0 mi Calm Calm - N/A   Scattered Clouds
5:55 AM 77.0 °F - 74.8 °F 93% 30.02 in 10.0 mi Calm Calm - N/A   Scattered Clouds
6:15 AM 77.0 °F - 75.2 °F 94% 30.02 in 10.0 mi Calm Calm - N/A   Scattered Clouds
6:35 AM 77.0 °F - 75.2 °F 94% 30.03 in 7.0 mi Calm Calm - N/A   Scattered Clouds
6:55 AM 77.0 °F - 75.2 °F 94% 30.03 in 7.0 mi Calm Calm - N/A   Mostly Cloudy
7:15 AM 77.0 °F - 75.0 °F 94% 30.03 in 7.0 mi Calm Calm - N/A   Mostly Cloudy
7:35 AM 77.5 °F - 75.6 °F 94% 30.03 in 7.0 mi Calm Calm - N/A   Scattered Clouds
7:55 AM 78.8 °F - 76.6 °F 93% 30.03 in 7.0 mi Calm Calm - N/A   Scattered Clouds
8:15 AM 80.1 °F 86.0 °F 77.2 °F 91% 30.03 in 10.0 mi Calm Calm - N/A   Clear
8:35 AM 81.5 °F 89.7 °F 77.9 °F 89% 30.04 in 10.0 mi South 4.6 mph - N/A   Scattered Clouds
8:55 AM 83.3 °F 93.8 °F 78.3 °F 85% 30.04 in 10.0 mi SSW 9.2 mph - N/A   Mostly Cloudy
9:15 AM 85.1 °F 96.7 °F 78.1 °F 79% 30.04 in 10.0 mi South 10.4 mph - N/A   Overcast
9:35 AM 84.7 °F 94.4 °F 76.3 °F 76% 30.03 in 10.0 mi SSW 9.2 mph - N/A   Scattered Clouds
9:55 AM 87.6 °F 98.2 °F 76.1 °F 68% 30.03 in 10.0 mi South 11.5 mph 18.4 mph N/A   Clear
10:15 AM 88.0 °F 98.0 °F 75.4 °F 66% 30.03 in 10.0 mi SSW 10.4 mph 16.1 mph N/A   Scattered Clouds
10:35 AM 89.6 °F 99.8 °F 75.0 °F 62% 30.03 in 10.0 mi SW 8.1 mph - N/A   Scattered Clouds
10:55 AM 90.5 °F 100.9 °F 74.7 °F 60% 30.03 in 10.0 mi South 9.2 mph - N/A   Scattered Clouds
11:15 AM 91.6 °F 100.5 °F 73.6 °F 55% 30.02 in 10.0 mi SW 11.5 mph 16.1 mph N/A   Scattered Clouds
11:35 AM 92.8 °F 102.2 °F 73.4 °F 53% 30.02 in 10.0 mi SW 6.9 mph - N/A   Scattered Clouds
11:55 AM 93.7 °F 103.6 °F 73.8 °F 52% 30.01 in 10.0 mi SE 5.8 mph - N/A   Scattered Clouds
12:15 PM 95.4 °F 104.0 °F 72.3 °F 47% 30.01 in 10.0 mi South 9.2 mph 16.1 mph N/A   Scattered Clouds
12:35 PM 95.2 °F 104.2 °F 72.7 °F 48% 30.00 in 10.0 mi South 9.2 mph 16.1 mph N/A   Scattered Clouds
12:55 PM 97.3 °F 105.6 °F 71.4 °F 43% 29.99 in 10.0 mi SSW 9.2 mph 17.3 mph N/A   Scattered Clouds
1:15 PM 97.5 °F 105.3 °F 71.1 °F 42% 29.99 in 10.0 mi SSW 12.7 mph 17.3 mph N/A   Clear
1:35 PM 98.1 °F 105.7 °F 70.9 °F 41% 29.98 in 10.0 mi SSW 4.6 mph 17.3 mph N/A   Clear
1:55 PM 99.0 °F 106.2 °F 70.3 °F 39% 29.97 in 10.0 mi WSW 5.8 mph 17.3 mph N/A   Clear
2:15 PM 99.5 °F 105.9 °F 68.7 °F 37% 29.96 in 10.0 mi SSW 10.4 mph 16.1 mph N/A   Clear
2:35 PM 100.2 °F 107.4 °F 69.4 °F 37% 29.95 in 10.0 mi SW 11.5 mph 17.3 mph N/A   Clear
2:55 PM 101.1 °F 107.8 °F 68.7 °F 35% 29.94 in 10.0 mi SW 11.5 mph 28.8 mph N/A   Clear
3:15 PM 101.8 °F 110.1 °F 70.2 °F 36% 29.93 in 10.0 mi SSE 9.2 mph - N/A   Clear
3:35 PM 101.1 °F 107.8 °F 69.1 °F 35% 29.92 in 10.0 mi SSE 10.4 mph 18.4 mph N/A   Clear
3:55 PM 101.7 °F 108.9 °F 69.3 °F 35% 29.91 in 10.0 mi SW 6.9 mph - N/A   Clear
4:15 PM 102.0 °F 108.8 °F 68.9 °F 34% 29.91 in 10.0 mi South 6.9 mph - N/A   Clear
4:35 PM 102.0 °F 108.8 °F 68.4 °F 34% 29.90 in 10.0 mi SE 10.4 mph 16.1 mph N/A   Clear
4:55 PM 102.7 °F 108.7 °F 67.6 °F 32% 29.89 in 10.0 mi SE 3.5 mph - N/A   Clear
5:15 PM 102.9 °F 109.1 °F 68.2 °F 32% 29.89 in 10.0 mi South 9.2 mph - N/A   Clear
5:35 PM 103.3 °F 109.0 °F 67.5 °F 31% 29.88 in 10.0 mi SSE 9.2 mph - N/A   Clear
5:55 PM 102.4 °F 108.8 °F 68.4 °F 33% 29.88 in 10.0 mi South 11.5 mph - N/A   Clear
6:15 PM 101.7 °F 110.5 °F 70.9 °F 37% 29.88 in 10.0 mi SSE 12.7 mph 17.3 mph N/A   Clear
6:35 PM 100.0 °F 111.0 °F 73.0 °F 42% 29.88 in 10.0 mi South 15.0 mph 20.7 mph N/A   Clear
6:55 PM 99.1 °F 111.4 °F 74.1 °F 45% 29.88 in 10.0 mi South 15.0 mph 21.9 mph N/A   Clear
7:15 PM 97.5 °F 108.2 °F 73.8 °F 46% 29.88 in 10.0 mi South 15.0 mph 20.7 mph N/A   Clear
7:35 PM 96.1 °F 105.6 °F 72.7 °F 47% 29.89 in 10.0 mi South 15.0 mph 20.7 mph N/A   Clear
7:55 PM 94.6 °F 103.7 °F 72.7 °F 49% 29.90 in 10.0 mi SSE 11.5 mph 21.9 mph N/A   Clear
8:15 PM 93.0 °F 103.2 °F 73.9 °F 54% 29.90 in 10.0 mi SSE 13.8 mph 21.9 mph N/A   Clear
8:35 PM 91.9 °F 99.5 °F 71.8 °F 52% 29.90 in 10.0 mi South 10.4 mph - N/A   Clear
8:55 PM 91.0 °F 96.6 °F 70.0 °F 50% 29.91 in 10.0 mi South 10.4 mph - N/A   Clear
9:15 PM 90.1 °F 96.8 °F 71.4 °F 54% 29.91 in 10.0 mi SSE 9.2 mph - N/A   Clear
9:35 PM 88.7 °F 99.3 °F 75.6 °F 65% 29.91 in 10.0 mi South 11.5 mph - N/A   Clear
9:55 PM 87.3 °F 98.2 °F 76.5 °F 70% 29.92 in 10.0 mi SSE 10.4 mph - N/A   Clear
10:15 PM 86.5 °F 97.8 °F 77.0 °F 73% 29.92 in 10.0 mi South 11.5 mph - N/A   Clear
10:35 PM 86.0 °F 96.9 °F 77.0 °F 74% 29.93 in 10.0 mi South 13.8 mph - N/A   Clear
10:55 PM 85.1 °F 95.8 °F 77.0 °F 77% 29.93 in 10.0 mi South 9.2 mph 17.3 mph N/A   Clear
11:15 PM 84.4 °F 94.6 °F 77.2 °F 79% 29.94 in 10.0 mi South 11.5 mph - N/A   Clear
11:35 PM 83.8 °F 94.3 °F 77.9 °F 82% 29.94 in 10.0 mi South 10.4 mph - N/A   Clear
11:55 PM 83.3 °F 93.5 °F 77.9 °F 84% 29.94 in 10.0 mi South 9.2 mph - N/A   Clear